sat.trackr.live / text

‹ back to catalog

STARLINK-30874

NORAD 58227 · 2023-170X

PAYLOAD ACTIVE UNKNOWN

§ Identity

Operator
Country
US
Launch date
2023-11-03
Launch site
AFETR
Launch vehicle
Mass (kg)
RCS (m²)

Purposes: comms

External: N2YO · Heavens-Above · Gunter

§ Orbital elements

Epoch: 2026-05-25T05:30:55.939968Z

Period
94.27 min
Inclination
43.0014°
Eccentricity
0.0000950
Mean motion
15.27583237 rev/d
Perigee alt
482.4 km
Apogee alt
483.7 km
Semi-major
6,861.2 km
B*
-3.6008e-5
RAAN
122.0959°
Arg perigee
263.6760°
Mean anomaly
96.3983°
Rev number
14,200

§ Raw data

STARLINK-308741 58227U 23170X   26145.22981412 -.00001253  00000+0 -36008-4 0  99972 58227  43.0014 122.0959 0000950 263.6760  96.3983 15.27583237142008

JSON: /api/v1/satellites/58227 · /tle

For live sub-satellite position, see the globe view (requires WebGL).

§ Visibility from observer

Set your observer location to see the next 7 days of passes ≥ 10°. The values pass through the URL so the page stays shareable.

No JS? Fill the form by hand. The geolocation button needs JavaScript.